Theta_e
327 322 315 313 317 313 306 303 293 292 296 291 292 294 292 300 302 301 299 300 297 305 321 326 325 322 317 314 321 327 328 316 315 303 300 319 345 346 348 349 352 352 352 354 355 354 354 355 355 354 354 354 353 352 351 351 350 349 349 348 348 349 349 350 350 350 351 352 352 353 353 353 352 352 353 353 352 352 352 352 352 351 351 351 352 352 350 350 349 350 350 350 350 350 350 350 349
322 318 312 315 317 307 303 300 291 293 291 290 292 294 296 299 301 299 298 299 297 318 327 329 329 330 330 329 330 329 322 331 333 330 336 344 346 347 350 351 352 351 353 354 354 353 353 354 355 354 353 354 353 353 352 351 350 350 349 349 349 349 350 350 350 351 351 352 353 353 353 353 352 352 352 352 352 352 353 352 352 352 351 351 350 351 350 349 349 349 349 348 348 348 348 348 347
320 314 310 311 306 305 300 298 293 288 289 286 289 295 299 297 298 300 303 314 318 327 329 329 329 327 327 327 322 319 311 336 336 338 337 345 340 343 350 352 352 352 353 354 354 353 352 352 354 354 354 354 354 352 351 351 351 350 350 349 349 349 350 350 351 351 352 352 352 353 353 352 352 352 352 352 352 352 352 352 352 352 351 351 349 348 348 348 348 347 346 346 346 347 346 346 345
312 314 311 304 304 297 296 291 288 289 287 286 289 295 296 297 299 300 303 321 324 328 326 320 322 328 326 323 326 331 329 331 337 337 336 339 341 347 350 352 353 353 353 353 353 353 351 353 354 354 354 354 353 352 352 351 351 350 350 349 349 349 350 351 351 351 351 351 352 353 352 353 352 352 353 352 352 352 352 352 351 352 351 350 349 349 349 348 346 345 345 345 346 347 346 345 343
310 311 314 303 299 298 295 292 288 288 288 288 288 294 299 299 300 300 299 301 317 317 318 322 323 330 331 328 329 321 322 335 337 340 338 342 348 349 350 352 352 352 352 353 353 352 351 354 354 354 354 354 353 353 352 351 350 349 349 349 349 349 350 350 350 350 351 351 352 352 352 352 352 352 352 353 352 352 351 350 349 349 348 348 348 348 348 349 348 345 344 345 346 346 345 344 344
302 302 307 305 301 299 294 291 289 288 292 292 292 294 296 299 299 298 299 300 306 318 319 322 322 323 327 330 332 325 335 327 335 335 339 341 347 350 351 351 351 350 352 352 352 351 351 354 354 354 353 353 353 352 351 351 350 349 348 348 348 349 349 349 349 350 350 351 351 352 352 352 352 352 352 352 351 351 350 350 349 348 346 346 347 348 348 347 347 347 348 347 345 344 345 343 343
303 299 298 300 299 296 288 284 285 287 293 295 294 297 298 299 299 299 298 312 320 322 326 326 331 329 325 331 334 336 338 339 335 336 341 344 348 349 350 350 349 349 351 351 351 351 352 353 353 353 353 353 353 352 351 350 350 349 348 348 348 348 348 349 350 350 351 351 351 352 352 352 352 352 352 351 351 351 350 349 349 349 348 348 348 348 348 348 347 346 345 345 344 344 343 343 343
309 300 298 293 290 292 288 285 287 287 290 296 297 298 300 301 301 300 299 307 315 317 326 329 330 328 324 335 325 335 338 339 339 342 343 345 347 348 349 348 347 348 350 351 351 351 354 352 353 353 352 352 352 351 350 350 350 349 348 347 347 348 348 348 349 350 350 351 351 351 352 352 352 351 351 351 351 350 350 350 350 349 348 348 348 347 346 345 345 345 345 345 344 344 343 343 343
304 300 300 293 291 290 286 286 287 289 291 293 295 298 309 303 302 301 299 300 310 321 324 329 329 323 327 328 326 333 335 339 341 343 343 344 345 347 348 347 346 347 349 351 351 351 350 353 353 352 352 352 351 351 350 350 349 348 348 347 347 348 347 347 348 349 350 351 352 351 352 352 351 350 350 350 350 350 349 348 347 348 347 346 344 344 344 344 344 343 344 344 345 344 343 343 343
302 300 293 291 288 289 285 287 288 290 291 293 295 298 299 299 299 298 298 299 306 324 327 332 331 326 330 325 328 331 332 339 340 339 341 344 345 346 346 346 347 347 348 349 350 349 350 354 352 352 351 351 351 350 350 349 348 348 347 347 347 347 347 347 348 349 350 351 352 352 351 351 350 350 350 350 350 349 349 348 348 348 347 346 346 347 346 345 344 344 344 344 344 343 344 344 343
296 296 295 292 288 285 286 285 288 291 293 296 297 300 301 302 300 299 297 298 319 326 330 333 328 328 329 329 331 338 339 339 337 336 342 344 344 344 344 346 347 348 347 348 348 349 350 350 353 352 351 351 350 350 349 348 348 347 347 346 346 346 347 347 348 349 349 350 351 351 351 351 351 350 350 349 349 349 348 348 347 347 347 347 346 344 345 345 343 343 344 344 343 343 343 343 343
296 294 293 284 284 285 284 285 287 291 293 294 295 299 299 301 300 298 296 302 320 327 328 331 326 333 328 328 328 336 338 337 338 340 342 344 343 344 345 346 348 348 348 347 348 348 349 350 350 352 351 350 350 349 348 348 347 347 346 346 346 346 347 347 348 348 348 350 350 350 350 350 349 349 349 349 349 349 348 347 347 347 347 347 346 347 344 344 343 343 343 344 343 342 343 343 343
295 290 285 286 282 285 286 287 288 294 292 293 295 298 298 297 297 299 299 311 323 325 324 328 334 333 324 327 334 337 335 337 340 342 342 342 343 344 346 346 347 347 348 348 347 347 347 348 348 348 349 350 349 349 348 347 347 346 346 346 345 346 347 347 347 349 349 350 350 350 349 349 349 348 348 348 348 348 348 347 346 346 346 346 347 345 345 343 343 344 344 343 342 342 342 342 342
299 293 288 287 285 284 287 286 286 288 289 294 296 298 298 298 297 299 313 317 322 322 328 335 334 333 328 330 331 332 335 340 341 342 343 343 344 344 345 345 346 346 347 347 346 345 346 346 347 346 346 346 345 348 348 347 347 347 348 347 346 346 346 347 348 349 349 349 349 349 349 349 349 348 348 348 347 347 347 347 346 346 346 347 346 347 345 344 344 344 344 343 342 342 342 341 342
302 294 290 287 285 286 285 288 286 287 289 294 295 298 297 301 298 303 317 319 321 331 334 338 336 330 322 326 326 332 336 340 341 342 341 342 343 343 344 345 344 345 345 345 345 345 344 344 343 343 343 342 342 342 342 346 347 348 348 347 347 347 347 349 349 349 349 348 349 349 349 349 348 349 348 348 348 348 347 347 347 346 345 345 346 346 346 344 343 344 344 343 342 343 342 341 343
301 293 289 289 283 285 287 288 289 289 291 294 296 298 297 317 319 314 319 325 326 333 334 328 336 323 330 330 332 336 339 340 341 340 340 340 341 341 342 342 342 343 343 344 344 344 343 342 341 341 341 341 340 340 341 342 345 347 348 348 348 347 348 348 348 348 348 348 348 348 348 347 347 345 348 345 347 347 347 346 346 346 345 345 345 346 346 344 344 344 344 343 343 343 342 343 344
296 296 289 285 284 285 285 288 288 285 290 293 297 297 296 311 326 327 330 332 327 325 331 333 329 336 333 334 338 340 341 341 340 338 338 337 337 337 338 339 340 340 341 341 341 341 341 341 340 340 340 340 340 339 340 340 344 347 346 347 348 347 348 349 348 349 348 348 347 347 347 339 339 341 340 340 347 342 346 346 346 346 346 345 345 345 344 345 345 344 344 344 344 344 343 344 342
300 291 286 285 285 286 288 290 289 291 294 296 297 297 297 310 324 328 333 331 331 331 331 335 337 337 338 339 340 340 340 338 337 336 335 335 335 334 334 335 336 335 336 337 339 340 340 339 339 339 339 339 340 340 341 341 342 345 339 341 343 345 347 348 346 344 348 341 348 343 337 340 336 335 337 347 342 342 342 346 346 346 345 345 345 346 344 345 345 344 344 344 344 344 345 331 332
297 289 287 289 287 289 291 293 294 294 294 296 297 298 297 309 323 324 325 325 328 327 329 333 331 334 337 338 338 338 337 336 335 334 334 333 333 332 332 333 334 334 333 335 338 339 339 339 339 339 339 339 339 339 340 341 340 338 337 338 342 345 345 345 341 343 338 339 340 337 339 335 334 335 336 343 343 346 343 346 346 346 346 344 345 345 345 345 344 345 345 344 345 345 331 327 327
298 293 287 289 290 290 294 295 295 296 296 296 296 298 298 305 313 324 323 323 327 325 325 330 330 329 332 335 336 336 336 334 335 334 334 334 334 333 332 332 332 332 333 334 336 338 338 338 338 338 339 338 338 338 341 341 339 337 338 337 337 336 337 340 336 337 336 337 339 334 333 334 332 328 346 347 346 340 338 346 346 346 346 346 345 344 344 345 345 344 344 345 339 336 331 328 328
294 295 293 291 291 293 296 296 297 297 298 296 296 297 297 299 317 325 325 322 322 326 331 330 329 330 332 334 335 336 335 334 333 334 334 334 334 334 333 333 333 333 333 334 336 336 336 336 337 338 338 338 338 340 342 341 339 338 336 337 335 334 334 333 333 333 336 338 340 335 331 335 332 330 331 333 333 334 333 334 338 336 334 335 343 332 331 333 333 330 328 332 331 334 333 330 329
294 295 297 292 294 293 296 296 297 297 298 296 295 297 298 303 326 325 323 317 318 326 331 334 334 334 333 333 335 335 334 333 333 333 333 333 333 333 334 334 335 334 334 333 333 334 335 336 337 337 338 338 339 339 339 342 339 336 334 336 335 334 333 332 332 331 333 334 335 335 336 331 332 330 329 330 334 333 333 333 333 332 331 332 339 334 332 332 331 330 331 332 333 334 334 332 329
292 294 294 293 296 296 298 298 298 297 296 295 294 298 302 315 321 321 320 318 325 333 334 336 336 336 336 336 335 334 333 332 332 332 332 332 333 334 334 335 334 332 333 333 334 334 335 336 337 338 338 338 338 338 338 339 337 336 335 336 334 333 333 331 331 333 334 334 333 336 333 332 332 331 331 333 333 333 332 332 332 331 330 331 336 334 332 332 331 333 333 332 330 332 333 333 332
296 292 295 295 294 295 296 298 298 296 295 296 298 298 306 312 318 318 324 329 333 335 337 337 337 338 337 335 335 334 333 332 332 333 333 333 334 334 335 334 334 334 334 334 335 335 336 336 338 338 338 338 337 338 338 337 336 336 337 341 336 339 334 332 331 333 336 336 335 335 336 332 331 330 332 332 334 333 333 332 331 331 331 331 332 332 330 329 329 331 332 329 330 332 333 332 331
294 292 295 296 296 296 297 297 296 296 296 297 297 297 302 312 316 324 325 331 334 335 337 337 337 337 336 335 334 333 332 333 333 334 335 334 334 335 334 334 334 334 333 334 335 336 336 338 338 338 338 338 338 338 337 337 337 336 338 336 334 342 332 332 332 333 334 336 337 336 336 331 330 330 330 332 332 332 332 333 331 331 330 330 329 329 329 329 328 329 330 331 328 328 328 330 331
295 295 297 296 296 297 297 295 295 295 296 299 296 307 318 323 327 323 328 332 335 336 336 336 336 335 334 334 334 334 333 334 335 334 334 334 332 333 333 334 334 333 334 335 336 337 338 338 338 338 338 338 338 338 336 337 337 335 335 334 334 340 331 331 333 331 331 333 335 336 335 333 330 330 330 331 331 331 331 332 332 330 329 329 328 329 328 328 328 327 328 328 331 328 329 331 332
294 296 297 297 298 297 297 295 296 296 295 295 296 309 318 319 317 314 331 334 335 335 334 335 335 334 334 334 335 335 335 334 332 329 328 328 330 332 332 333 333 333 334 335 337 337 338 338 338 338 338 341 338 337 336 335 336 334 333 332 332 334 332 333 333 332 331 331 332 333 333 334 334 332 331 330 331 331 331 331 331 331 331 330 329 329 327 329 327 327 329 329 330 330 331 330 331
297 297 295 294 294 295 295 294 294 294 297 295 296 309 314 309 318 319 330 334 336 333 333 334 335 335 334 334 335 335 334 330 327 328 327 326 328 331 331 332 333 333 334 334 336 337 337 336 337 338 338 339 338 336 337 334 334 333 333 331 332 332 333 331 331 331 333 331 332 331 331 332 335 334 332 330 330 331 331 331 331 331 332 332 332 330 329 329 329 329 330 329 329 329 329 329 328
295 295 292 293 293 294 293 294 295 296 295 297 296 298 297 304 314 325 332 335 335 333 332 333 334 333 333 334 334 334 330 328 327 326 327 329 330 333 331 334 335 334 335 335 336 337 336 336 337 337 337 337 335 335 335 334 334 334 334 332 333 334 332 331 331 333 331 331 331 331 332 333 333 333 332 331 334 330 330 330 331 332 332 332 333 333 332 328 328 328 328 329 329 328 328 326 329
294 294 291 291 290 289 293 294 295 294 296 297 297 287 287 291 318 328 333 333 333 331 331 332 332 332 333 333 331 328 328 328 326 327 328 329 330 333 333 334 336 335 334 335 336 336 338 338 338 337 335 334 334 333 333 333 332 334 336 335 337 335 331 331 333 333 334 333 332 332 331 333 336 336 334 331 330 330 330 330 330 330 331 332 332 332 332 330 329 328 327 327 332 327 325 324 325
288 290 292 286 287 283 289 294 293 294 296 297 297 288 285 296 319 328 331 331 330 328 330 331 331 331 332 330 328 327 327 328 328 329 330 332 331 330 336 336 336 335 335 334 335 337 338 338 338 336 336 333 336 332 333 331 331 335 333 332 331 333 334 332 330 328 330 331 332 332 333 333 334 336 336 333 331 331 331 330 331 331 331 331 332 333 332 331 330 330 329 328 326 326 325 326 326
291 286 283 282 285 283 287 292 294 293 296 296 295 289 287 303 317 326 329 329 330 328 329 330 328 325 327 328 326 325 327 329 329 329 330 331 331 330 337 336 336 336 335 335 336 337 338 338 339 335 334 333 332 332 332 332 332 331 332 335 330 333 337 336 333 332 332 332 334 334 334 335 335 334 335 336 333 333 332 331 332 332 331 331 330 331 332 332 331 330 330 328 326 326 326 325 325
284 286 281 284 283 285 288 294 293 296 294 295 295 286 293 302 314 324 328 329 329 328 328 327 328 328 327 326 326 326 327 326 327 328 330 330 331 332 336 337 336 336 336 337 336 337 337 338 339 335 333 332 331 332 331 332 331 330 330 332 331 332 334 335 333 330 330 332 333 333 334 335 335 333 333 335 335 333 332 332 332 332 331 330 330 329 330 331 331 331 329 330 328 326 326 325 325
281 282 283 283 284 284 284 288 292 292 294 291 294 289 288 295 312 322 322 328 328 327 327 327 327 327 326 326 326 325 325 326 326 327 329 331 331 333 336 338 337 337 338 338 338 337 337 338 336 335 333 332 330 330 330 331 332 331 331 332 336 332 331 332 332 332 332 331 332 333 333 333 334 333 333 334 335 335 333 332 331 331 331 330 330 329 329 330 330 330 330 330 329 328 326 325 325
279 282 283 284 285 285 286 287 291 292 293 292 291 291 290 298 312 319 321 323 326 326 326 326 327 326 325 325 325 325 325 326 327 329 330 331 331 333 334 336 337 338 338 338 337 337 337 336 336 337 334 332 330 330 332 332 332 333 332 330 328 328 328 329 330 332 333 332 332 333 333 332 334 333 334 334 335 335 335 333 331 331 331 330 329 328 329 329 330 329 329 329 330 329 328 327 327
284 284 282 282 284 284 285 288 290 294 290 290 289 289 289 299 310 317 321 324 324 325 326 326 326 325 325 324 324 324 325 326 328 329 330 331 332 333 335 337 337 337 337 337 337 337 337 336 336 335 334 333 332 329 329 329 330 332 332 330 328 327 327 329 329 331 332 333 334 334 333 332 332 334 333 333 333 335 334 333 331 331 332 331 330 328 328 328 328 329 329 328 327 328 329 327 326
286 286 285 284 284 285 287 288 291 293 290 290 289 288 289 297 309 313 320 321 323 324 324 324 324 324 323 322 323 323 324 324 328 329 329 331 332 334 335 336 336 336 336 336 335 335 336 335 334 333 333 333 332 329 328 327 325 330 331 330 329 328 327 328 330 330 331 333 334 334 334 334 332 332 334 332 332 335 336 333 332 331 331 332 332 331 329 328 329 329 329 329 328 326 326 326 325
287 286 285 284 285 284 287 290 293 292 292 288 288 289 290 296 307 313 318 316 318 322 323 323 323 323 322 321 321 322 324 327 328 327 329 330 332 333 334 334 335 332 333 334 333 333 334 334 333 332 332 329 328 327 328 327 323 324 324 325 326 326 326 327 329 330 330 332 332 332 333 333 332 332 333 332 332 334 335 335 334 333 332 332 332 333 332 331 329 329 329 327 326 328 326 326 326
286 285 284 284 283 286 288 289 291 293 292 288 287 288 289 292 307 315 317 318 321 324 324 324 323 321 320 321 322 323 324 324 326 327 329 329 330 331 331 331 331 331 331 332 333 332 332 332 329 327 328 328 327 331 329 328 328 329 327 325 325 325 327 329 329 330 331 332 331 331 332 332 332 332 332 332 332 333 334 334 334 334 333 332 329 329 331 331 331 330 329 326 323 325 327 328 326
285 284 282 282 284 285 283 286 289 294 290 287 289 294 296 305 308 310 312 313 316 317 313 318 322 320 320 322 323 323 324 324 324 326 327 329 330 330 330 330 330 330 329 330 330 331 331 331 330 328 328 328 327 328 332 328 329 329 331 333 331 329 328 332 327 328 328 329 332 332 332 332 332 332 332 333 333 332 333 333 334 333 332 332 330 329 329 330 330 329 328 327 325 322 324 325 328
286 286 284 284 285 285 285 284 289 292 292 296 296 292 294 296 306 306 311 313 313 315 315 314 318 322 323 324 324 325 324 325 325 326 327 327 328 328 329 329 330 329 329 330 330 331 332 331 330 330 330 329 329 330 331 329 329 329 331 332 331 328 327 327 328 329 329 329 332 329 331 330 331 333 333 333 334 334 334 333 333 334 332 331 331 330 330 330 330 330 330 328 327 325 323 324 325
284 286 287 287 287 286 288 288 289 283 284 289 292 279 286 293 305 307 308 309 310 313 312 314 316 318 322 322 323 325 326 327 326 326 326 326 327 326 326 326 325 325 325 327 328 328 328 327 327 326 326 326 326 327 329 329 329 328 327 326 326 325 325 325 326 326 327 327 327 329 330 330 330 330 333 334 334 335 333 333 333 333 333 332 331 331 331 330 329 329 331 330 328 328 326 324 322
282 284 289 289 288 287 287 287 286 281 281 286 291 284 279 294 304 307 307 308 308 309 311 315 316 318 320 322 324 324 325 325 326 326 326 325 324 323 322 322 322 322 324 325 325 326 326 326 326 325 325 325 326 326 328 328 327 328 328 326 326 325 323 324 327 329 328 329 329 329 329 329 329 328 330 330 330 332 332 332 332 333 333 332 332 330 329 330 330 330 330 329 329 329 327 323 323
282 287 290 290 288 288 287 288 287 282 286 288 291 288 288 292 301 309 310 308 307 307 311 314 315 317 319 321 322 323 323 324 324 324 324 323 322 320 319 320 321 321 323 323 324 324 324 324 325 325 325 325 325 326 326 328 326 326 326 325 325 324 325 325 327 328 329 330 328 328 327 327 327 327 327 327 329 330 331 331 333 333 332 331 330 330 329 330 330 330 330 330 330 329 327 324 324
285 288 290 288 289 287 288 287 286 285 287 279 284 296 288 289 300 310 311 305 305 307 310 313 314 316 318 319 321 322 322 323 323 321 321 320 319 318 318 318 319 320 321 321 322 323 324 324 324 324 323 323 323 325 324 325 326 325 324 324 322 324 325 325 327 328 328 327 327 326 325 326 326 327 326 327 327 328 329 329 331 332 332 331 331 330 330 330 330 330 329 329 328 328 328 328 325
289 290 291 290 290 289 289 286 285 285 282 277 285 293 283 283 300 305 308 307 305 307 311 312 315 316 318 318 319 320 320 320 320 320 319 319 318 317 317 317 318 319 319 320 321 322 322 322 322 322 321 322 323 323 323 323 324 324 323 323 322 321 323 323 325 325 326 326 326 326 324 324 325 325 326 325 325 327 327 327 328 329 330 331 331 330 329 329 329 329 330 330 330 328 327 326 325
290 291 289 288 288 288 288 286 283 282 276 282 286 292 288 284 297 303 301 304 309 309 310 313 316 316 317 318 318 318 318 318 318 318 318 318 318 318 317 316 316 318 319 319 319 320 320 320 319 319 319 321 321 322 322 322 322 322 322 322 321 321 320 319 319 320 322 324 325 325 324 323 323 324 324 325 324 325 326 327 326 326 328 330 331 330 329 329 329 330 331 330 328 325 325 327 325
291 288 285 285 284 285 285 284 283 278 275 284 286 292 292 283 292 303 307 313 311 312 309 310 313 314 314 315 316 317 317 316 316 316 316 316 316 316 316 316 316 316 317 317 317 317 317 318 318 317 317 319 320 321 321 320 320 320 320 319 318 318 319 319 319 319 321 322 323 324 324 324 323 324 325 326 326 326 326 325 325 325 326 327 328 329 329 329 329 329 329 328 328 328 328 328 326
291 286 286 282 277 279 275 280 275 278 278 281 286 291 288 287 291 304 306 310 313 312 312 313 312 313 313 314 315 316 316 316 315 315 315 315 315 315 315 315 315 315 315 316 317 316 315 317 317 316 315 317 319 320 319 318 318 318 319 319 319 320 319 319 319 320 320 320 321 321 322 322 323 323 324 325 326 327 327 326 326 325 325 325 327 328 329 329 329 329 329 330 330 329 327 327 326
288 286 282 280 276 275 272 276 276 277 281 285 285 293 287 290 298 306 306 311 314 314 313 314 314 313 313 313 314 314 315 315 314 315 315 315 315 315 315 315 315 314 314 315 316 316 316 316 316 315 315 315 316 316 315 315 316 317 318 319 319 319 318 319 319 319 319 319 320 319 320 321 321 321 322 322 324 326 327 327 327 327 326 325 326 326 326 327 328 328 329 329 329 330 329 328 328
288 289 285 279 279 277 272 275 275 277 277 282 291 287 280 288 293 306 310 313 313 312 313 314 314 314 313 314 314 314 313 313 314 314 314 314 314 314 314 314 314 315 315 315 316 316 315 314 314 313 313 312 312 312 313 313 314 315 316 317 317 317 317 317 317 318 317 317 318 318 319 320 320 320 320 321 323 324 324 325 326 326 326 326 326 325 326 326 327 328 328 329 330 330 330 330 329
288 288 287 281 283 280 278 276 278 279 279 281 286 287 293 293 305 310 313 312 311 313 312 312 311 312 312 311 311 312 312 313 313 313 313 313 313 313 314 314 314 315 314 314 314 314 314 313 313 312 310 310 311 313 312 312 313 314 314 314 314 314 316 315 315 315 315 316 316 317 317 318 318 318 318 319 320 321 322 323 323 324 326 326 327 327 327 327 327 327 328 329 328 330 329 329 329
285 287 284 287 289 286 279 279 281 278 281 280 289 292 297 304 305 307 309 309 308 309 309 310 309 310 311 310 310 311 311 312 312 312 312 312 313 313 314 314 314 314 312 312 313 314 314 313 311 310 310 310 311 313 312 313 312 312 312 312 312 311 311 311 312 311 312 313 313 314 314 315 315 315 315 317 316 317 319 320 321 319 317 319 322 323 324 325 327 327 328 328 328 329 328 328 328
286 283 287 289 292 291 285 277 278 274 276 280 290 289 292 295 289 305 304 303 304 306 307 308 308 309 309 309 309 310 310 311 312 312 312 313 313 313 313 314 314 313 312 312 313 314 312 310 309 309 308 310 311 311 311 310 310 309 309 309 309 310 309 309 309 309 310 310 310 310 311 312 312 312 313 313 313 313 315 316 318 313 313 313 314 313 314 317 320 324 326 328 328 329 328 328 328
289 289 292 288 279 280 283 280 275 273 276 282 287 293 293 293 292 300 299 300 302 304 306 306 306 307 307 308 309 309 310 310 310 311 311 311 311 311 312 312 313 313 313 314 315 314 312 310 310 309 310 311 310 310 310 309 309 309 308 307 307 308 308 308 309 309 308 309 310 310 309 310 310 310 309 309 310 310 311 312 315 310 310 310 310 310 309 310 312 315 318 322 326 327 326 326 327
293 291 290 290 288 284 280 280 280 283 281 282 283 291 287 297 296 301 299 302 303 304 305 305 306 307 307 307 307 308 308 309 309 309 310 310 310 311 311 311 311 311 312 313 313 312 310 310 312 313 312 311 309 308 309 308 308 307 307 307 306 307 308 308 308 308 308 309 309 309 308 308 308 309 308 308 308 308 308 308 312 310 307 307 306 306 306 307 307 308 310 312 314 317 322 325 326
284 286 284 288 289 288 288 285 282 283 281 282 284 284 288 294 303 303 302 303 305 305 304 305 306 306 307 307 306 307 308 308 308 309 309 310 310 310 310 310 310 312 312 312 311 310 311 311 311 311 310 309 308 307 307 307 307 306 306 306 306 307 307 309 308 308 308 307 308 307 307 307 307 306 307 306 306 306 306 306 307 309 305 304 304 303 303 304 304 304 304 307 310 311 313 318 324
285 286 283 287 286 282 282 279 287 286 285 283 284 283 288 295 303 306 305 306 306 307 306 305 306 306 306 306 306 307 307 308 308 308 309 309 309 309 309 310 310 310 310 309 310 310 310 310 310 310 309 308 307 306 306 306 306 306 306 307 308 308 308 308 307 306 306 306 305 305 305 305 304 305 305 305 305 305 305 305 305 307 305 303 302 302 302 301 301 300 301 302 304 305 307 311 316
Wind_Speed
5 5 4 3 1 2 2 4 0 2 2 3 1 1 4 2 4 4 6 4 5 1 1 4 3 3 2 2 5 7 5 3 1 8 4 1 3 10 10 13 12 10 12 11 9 9 10 15 18 18 17 17 16 15 14 14 14 14 14 14 14 14 14 14 14 14 14 14 15 14 15 15 15 15 14 14 14 14 13 14 14 14 14 14 14 14 13 12 12 11 12 13 14 14 13 13 12
4 5 2 2 1 1 0 1 2 1 3 1 6 1 6 2 1 5 7 5 3 1 6 9 12 11 13 12 9 3 6 8 3 4 5 5 9 7 10 14 14 14 11 10 9 9 9 12 18 18 18 17 17 15 14 15 15 14 14 14 14 14 13 13 14 13 12 14 14 14 16 15 15 15 14 14 12 12 11 14 14 14 14 14 13 13 13 12 11 10 11 12 14 13 13 13 12
3 4 3 5 3 3 0 2 3 1 3 7 5 6 3 2 5 10 1 4 3 6 9 11 7 3 1 2 2 5 1 5 8 7 6 8 12 5 9 11 12 12 13 10 10 9 8 11 17 18 18 18 16 16 15 14 15 15 14 14 14 14 13 14 12 12 13 14 14 15 15 15 15 15 14 14 13 13 13 12 14 14 13 13 12 12 11 11 10 10 10 11 12 12 12 11 11
1 2 2 2 1 3 2 2 3 7 4 5 3 5 5 4 8 3 3 3 3 6 2 2 5 4 3 9 3 4 5 2 3 7 7 6 4 10 10 11 12 10 9 9 9 9 7 12 17 18 19 18 17 16 15 15 15 15 14 14 14 13 13 12 11 11 13 13 13 14 15 14 15 15 15 14 13 13 13 13 13 13 12 12 12 11 11 10 9 9 9 10 11 11 11 11 10
2 2 2 4 3 1 1 2 2 4 8 5 4 5 4 5 9 2 1 5 5 3 4 3 5 2 2 5 0 0 1 5 5 2 6 6 8 10 11 12 11 10 9 10 10 9 8 17 16 16 18 19 18 17 15 15 15 15 15 14 14 13 12 12 12 12 12 12 13 14 14 15 15 15 14 14 13 13 13 13 13 12 11 11 10 10 10 10 9 8 7 8 9 10 10 10 10
3 3 3 2 0 2 3 0 2 5 5 4 1 6 4 6 2 1 4 4 5 4 2 2 5 3 5 3 2 4 5 3 4 3 4 7 11 12 12 11 10 10 9 9 9 8 8 15 14 15 17 18 18 17 16 15 15 15 15 15 15 14 13 12 11 12 12 12 12 13 13 14 14 15 14 14 13 13 12 12 12 11 11 10 10 9 8 8 8 8 8 9 8 9 10 10 10
0 3 3 2 1 2 5 3 5 4 8 5 4 8 5 6 2 3 3 3 2 3 4 3 12 10 7 1 5 3 0 6 5 3 3 10 12 12 11 11 10 11 10 9 8 8 10 14 14 15 16 17 17 17 16 16 15 15 15 15 15 14 13 12 12 11 11 11 12 13 13 13 14 14 13 13 13 12 12 11 11 11 11 10 10 9 8 9 9 9 8 8 8 8 9 9 9
1 2 1 1 1 1 1 2 5 4 6 6 4 5 10 8 3 3 1 1 2 2 2 4 1 8 0 3 4 3 5 3 9 12 12 10 11 11 10 10 11 11 10 9 8 8 14 14 14 15 17 16 17 17 16 16 15 15 15 15 14 13 12 12 11 10 10 10 10 12 13 13 14 13 13 12 12 11 11 11 11 11 11 11 9 8 8 9 9 8 8 8 8 8 8 9 9
3 4 1 4 1 1 1 4 5 3 5 3 8 8 10 8 6 4 5 2 1 1 3 2 2 6 3 6 4 2 5 9 12 15 12 11 11 11 8 11 13 11 10 9 9 8 9 13 13 14 16 16 16 16 16 15 15 14 15 14 14 11 11 11 10 9 9 8 8 11 12 13 13 12 12 12 12 11 11 10 10 10 10 9 8 8 8 8 8 8 8 8 8 8 8 8 9
1 1 1 2 3 3 1 6 1 5 3 4 7 12 10 6 5 4 6 1 6 5 2 2 2 9 10 10 5 2 5 11 14 12 10 9 10 9 8 9 11 15 11 10 8 8 8 15 14 13 14 15 15 14 14 13 14 14 14 14 13 12 11 11 10 10 10 10 10 11 11 12 12 11 12 12 12 11 10 10 10 10 10 9 8 8 8 8 8 8 8 8 8 8 7 8 8
0 3 1 2 1 2 6 5 3 5 4 4 7 12 12 9 7 7 3 4 6 8 3 12 8 12 8 6 4 3 6 10 14 12 9 10 9 10 8 8 10 12 13 11 9 8 8 9 16 13 12 14 13 12 12 12 13 13 13 13 12 13 12 11 10 10 10 11 11 10 10 11 11 11 11 11 11 11 10 10 10 9 9 8 7 6 7 7 7 7 7 8 8 7 7 7 8
0 0 1 2 3 6 4 3 4 7 6 4 7 9 4 7 4 3 3 6 5 5 9 7 7 11 10 7 5 5 6 7 9 11 9 8 8 8 9 8 11 10 11 10 9 6 7 8 8 13 14 13 12 12 11 12 13 13 12 12 12 12 10 9 10 10 11 11 9 9 9 10 10 10 10 10 10 11 10 9 9 9 8 7 6 6 5 6 6 7 7 7 8 7 7 7 9
2 1 4 3 3 2 2 1 5 3 5 6 6 4 3 5 5 13 6 9 9 9 5 4 17 5 6 5 6 8 9 5 7 10 10 8 7 7 8 9 9 10 9 9 8 8 7 6 6 6 10 15 12 12 11 11 12 12 11 11 10 11 10 10 10 11 11 10 10 10 10 9 9 10 10 10 10 10 10 9 8 8 7 7 6 4 4 5 5 6 6 6 7 7 7 7 8
3 5 5 3 1 2 2 3 1 3 5 7 2 5 4 4 6 6 9 8 11 12 2 12 8 9 10 9 8 9 8 8 9 9 8 9 8 8 10 9 10 9 8 8 8 7 6 6 6 5 6 6 5 9 11 12 11 10 9 10 11 11 10 9 10 11 10 10 10 10 9 9 9 9 9 9 10 10 10 9 8 8 7 6 5 4 3 4 4 5 5 5 5 6 6 6 7
3 1 1 1 2 1 2 3 4 3 7 4 3 2 5 4 5 6 14 12 4 2 9 3 7 9 8 15 8 11 11 12 11 10 10 9 10 10 10 9 9 9 8 8 7 7 7 6 6 6 6 6 6 5 4 7 11 10 10 11 10 10 10 11 11 10 10 10 9 9 9 9 8 8 9 8 9 10 10 9 9 8 7 6 6 4 4 3 3 3 4 4 5 5 5 6 7
3 2 1 1 3 3 5 3 3 1 9 0 3 7 5 3 1 6 3 10 4 6 3 5 4 2 9 5 8 16 15 13 10 12 12 13 11 10 10 9 9 8 7 7 7 6 6 7 6 6 6 6 5 4 5 5 9 12 11 11 11 11 11 11 11 10 10 9 8 8 8 5 6 5 8 5 8 9 9 6 9 8 7 6 5 5 4 3 1 3 3 4 4 4 4 5 7
1 2 0 1 5 4 3 3 5 3 6 4 5 6 8 4 3 3 5 9 18 5 3 3 2 2 12 4 17 19 14 12 12 14 13 10 8 7 6 7 6 6 5 6 6 6 6 7 7 6 5 6 5 5 4 5 7 12 10 12 11 10 10 11 10 11 9 8 6 6 5 2 2 1 2 2 6 3 6 7 8 7 7 7 6 5 3 2 1 1 2 3 4 4 4 6 10
2 1 2 5 5 3 4 6 5 2 3 6 12 6 8 3 3 4 12 11 10 9 9 7 14 11 14 14 16 16 14 14 14 15 12 10 8 7 7 6 6 6 6 5 5 6 6 5 6 6 5 6 5 5 4 4 4 7 3 4 4 7 9 9 7 4 6 3 7 4 2 1 1 1 0 2 1 2 4 6 6 6 6 6 5 5 4 2 1 0 2 3 4 4 4 4 6
3 1 2 8 4 5 3 2 5 3 6 8 8 8 4 3 2 1 7 4 11 11 7 11 14 15 15 16 15 17 15 14 12 13 14 14 11 12 8 7 6 7 6 5 5 6 5 5 5 6 5 5 5 4 3 3 4 3 3 3 3 6 4 4 3 3 2 3 2 2 1 1 1 1 1 1 1 1 1 6 6 6 5 5 4 4 4 3 1 0 1 3 4 5 2 4 5
5 3 6 7 4 3 4 5 6 4 6 7 8 10 8 4 1 1 6 7 5 16 12 12 14 17 16 15 16 14 14 12 11 13 12 12 11 11 11 10 8 6 6 6 6 5 5 5 5 5 5 4 4 4 3 4 3 3 3 2 2 2 2 3 3 3 2 2 2 2 1 1 1 1 1 3 3 0 1 3 5 5 5 5 4 1 2 2 2 1 1 2 4 3 3 3 5
2 3 7 3 4 5 7 7 9 9 1 4 5 7 5 4 4 5 10 12 0 4 15 21 18 18 18 16 14 13 13 12 10 11 12 11 10 8 9 9 8 7 6 5 5 6 5 5 5 4 4 4 4 4 4 4 3 3 3 2 2 2 2 2 2 2 2 2 3 1 1 1 1 1 1 1 2 0 1 0 0 0 1 0 2 1 1 1 1 0 1 1 2 2 3 3 6
2 9 1 3 1 3 8 7 8 5 1 3 5 6 5 5 2 10 16 13 10 13 12 14 22 21 22 20 16 13 14 12 11 11 12 12 12 10 8 7 6 5 5 6 6 6 5 5 5 5 4 4 5 4 4 5 5 3 3 3 2 1 2 3 3 2 2 2 2 1 1 1 0 1 1 1 1 0 0 1 1 1 0 1 0 1 2 2 2 1 1 1 0 1 1 2 1
5 4 3 4 5 6 3 5 5 1 2 4 6 4 2 0 4 2 2 1 2 6 5 8 19 19 17 17 17 14 14 13 11 11 11 11 11 10 9 8 9 8 6 5 5 5 5 5 5 5 5 5 4 4 4 4 4 3 3 2 3 1 1 3 2 2 2 2 2 1 2 1 1 1 2 2 1 1 1 1 2 1 2 2 2 1 2 2 3 2 2 2 0 1 1 2 3
6 6 0 4 4 7 7 10 10 7 5 8 2 4 1 1 7 1 4 2 8 11 13 13 13 13 15 15 15 16 14 13 11 9 8 9 9 10 9 9 7 5 6 6 5 6 6 7 6 5 5 5 4 5 5 4 3 3 4 4 2 3 2 2 2 2 2 1 1 0 0 1 2 1 1 2 3 0 1 2 2 2 2 2 2 1 2 3 3 3 2 2 2 1 1 2 1
5 4 2 5 5 6 8 9 9 8 9 7 2 2 0 0 2 3 3 7 10 14 15 15 15 13 10 10 13 11 11 10 10 9 8 6 7 8 6 7 8 7 8 7 6 7 6 7 6 6 5 5 5 5 5 4 4 4 3 3 3 4 2 2 1 2 2 2 1 0 0 2 1 1 2 3 1 2 2 1 1 2 2 2 1 3 2 4 3 3 3 3 2 2 2 3 2
5 5 2 4 5 6 7 6 8 9 6 2 2 2 4 8 10 8 2 6 11 15 14 15 14 13 11 10 10 10 10 11 11 10 9 8 5 7 9 10 10 10 9 8 7 7 6 6 7 7 6 6 6 5 5 5 5 5 4 3 3 3 1 1 0 1 1 1 1 1 2 1 2 2 2 2 2 2 2 2 1 2 2 2 2 3 3 4 5 3 2 2 3 3 3 3 2
2 3 7 9 10 5 4 6 7 6 4 1 2 3 6 2 5 1 2 8 13 14 14 12 14 14 12 10 9 9 11 11 11 10 9 8 12 13 12 10 8 7 7 7 6 6 6 6 5 5 5 6 5 5 5 5 5 4 3 3 3 2 1 1 0 0 0 0 1 2 3 2 2 2 2 2 2 2 2 2 3 2 3 4 2 4 2 4 4 4 3 4 4 4 5 3 2
3 4 3 5 7 5 5 3 7 3 5 3 7 7 2 1 2 9 8 9 13 17 14 13 12 12 11 12 11 9 9 11 12 15 17 16 12 5 5 6 7 7 7 7 5 4 5 4 5 4 4 5 5 4 4 4 4 3 3 2 1 0 1 1 1 1 1 2 2 2 2 2 2 3 3 2 2 2 3 3 4 3 5 4 3 4 3 3 4 4 3 2 3 3 3 1 1
4 2 3 7 5 5 3 6 6 1 5 2 5 5 1 1 6 9 13 12 11 14 14 12 11 11 13 12 10 9 11 11 11 8 9 5 6 5 8 7 9 8 5 7 7 7 6 5 5 4 4 4 4 5 4 3 3 3 3 2 1 1 2 1 2 2 2 2 2 2 3 3 2 3 3 3 3 2 2 3 3 4 4 4 3 3 3 2 2 3 2 1 1 2 2 1 1
4 0 3 3 3 6 7 3 1 5 4 1 7 2 4 3 6 10 13 13 12 11 12 11 9 11 11 9 10 10 8 9 7 6 6 6 5 3 7 5 6 6 6 5 7 8 6 4 4 4 4 4 3 3 3 3 3 3 2 2 2 2 2 2 2 2 3 2 2 2 3 3 3 3 3 3 3 3 3 3 4 4 4 4 4 3 3 2 4 3 3 1 1 1 1 1 1
1 3 1 2 1 4 4 3 5 6 3 1 5 4 4 1 8 11 12 16 18 12 12 12 10 8 6 10 9 9 7 6 6 5 6 7 4 2 8 7 6 5 5 4 6 7 6 4 4 4 3 3 3 3 2 2 2 3 2 2 1 1 1 1 2 2 2 2 1 3 3 3 3 4 3 3 3 4 3 4 4 5 3 3 4 4 3 3 3 5 4 5 3 4 2 1 1
0 1 6 3 4 6 8 2 7 8 2 1 4 2 3 5 10 11 10 10 15 14 12 12 11 9 8 8 8 8 8 5 6 6 6 8 5 2 7 8 7 6 7 6 6 5 5 5 4 3 3 3 2 2 0 0 1 2 2 2 2 1 2 3 2 2 2 2 2 3 4 4 4 3 3 3 4 3 4 4 5 4 3 3 3 3 3 4 3 4 2 3 5 5 4 4 2
1 5 3 1 2 5 3 2 7 10 3 1 3 4 5 1 6 10 10 12 13 15 13 10 11 12 10 10 9 8 7 6 5 5 6 6 4 2 5 8 8 7 7 7 7 6 5 5 5 3 3 2 2 1 0 0 1 0 1 0 0 1 2 2 2 2 1 2 2 3 3 4 3 3 3 3 4 4 4 4 4 4 3 3 3 2 3 3 3 5 3 3 5 6 5 4 3
3 1 5 3 3 2 2 3 3 4 4 3 0 1 2 7 9 9 8 11 13 14 13 12 9 8 9 8 8 9 9 8 8 6 7 6 5 4 6 8 8 8 7 6 7 7 6 4 3 3 1 1 1 1 0 1 1 1 2 1 1 1 2 2 2 1 2 2 3 4 4 3 3 4 4 4 5 5 4 4 4 4 3 1 1 2 4 3 4 4 6 5 6 4 3 4 5
5 2 3 1 1 3 5 4 2 4 1 6 2 1 1 8 11 11 14 9 14 15 15 13 11 11 11 9 9 10 10 9 7 7 8 8 7 5 6 8 8 7 6 7 6 5 4 4 3 3 2 2 1 1 1 2 2 2 2 2 2 2 2 2 2 3 3 3 3 4 4 4 4 4 4 4 5 4 4 4 4 3 2 2 3 4 6 5 4 4 5 6 4 5 7 7 7
7 5 5 3 4 3 2 4 2 8 3 4 5 6 2 7 11 11 13 14 15 14 13 11 11 12 11 10 9 10 10 8 7 8 9 7 6 6 6 7 6 6 6 6 6 6 5 4 3 3 2 2 2 2 1 2 3 2 2 4 4 3 3 3 2 4 3 4 5 4 4 4 4 4 4 3 4 4 3 4 4 3 4 4 5 5 5 5 5 5 6 5 5 4 3 3 3
4 4 3 4 4 4 3 3 3 2 4 6 6 3 5 10 12 12 12 6 6 12 15 11 12 12 11 11 11 10 10 9 8 8 8 8 8 6 6 7 7 7 7 7 6 5 5 4 4 4 3 3 3 3 1 1 1 1 1 1 3 3 3 3 3 3 3 4 4 4 4 5 4 4 4 3 4 4 4 3 4 4 4 5 6 6 6 5 5 5 4 3 5 5 5 2 2
3 2 3 5 4 5 4 4 1 3 4 1 5 6 4 9 10 13 12 15 13 14 12 13 15 11 10 12 13 11 9 8 10 9 9 8 7 8 7 6 7 8 6 7 6 5 4 4 4 2 2 2 2 3 2 1 1 2 2 2 2 2 3 3 4 4 4 3 3 4 4 4 4 4 4 3 3 4 5 4 5 5 5 5 6 6 6 6 5 6 4 4 3 6 5 5 4
5 5 2 1 5 2 7 5 2 0 3 2 4 6 1 2 6 11 16 18 14 10 5 16 15 12 11 11 11 12 11 10 9 9 9 9 10 8 7 7 7 5 6 6 6 5 4 4 3 2 2 3 2 2 3 2 2 1 1 1 1 2 3 3 3 4 3 4 4 3 3 3 3 4 4 3 4 5 5 5 5 5 5 5 4 5 5 6 5 7 6 6 5 4 4 4 6
7 4 5 6 2 3 3 5 1 0 3 2 4 7 3 3 4 3 3 2 3 7 2 6 4 14 15 14 13 15 12 11 11 10 10 9 8 8 8 7 6 6 4 5 4 5 3 3 1 2 3 3 3 2 1 2 1 0 1 2 2 2 2 3 2 2 3 4 6 5 4 4 3 5 4 4 4 3 3 5 5 5 6 5 5 6 6 7 6 5 5 6 4 5 4 4 6
3 6 4 2 3 2 4 2 3 0 3 8 8 7 2 5 5 2 3 7 9 7 11 1 9 5 9 9 8 8 12 12 12 12 10 10 9 8 9 8 8 7 6 6 5 5 4 5 4 4 4 4 3 3 1 1 2 1 1 2 2 3 3 4 6 7 6 3 3 4 5 3 3 4 3 3 2 5 4 5 5 6 6 5 5 6 6 7 6 6 7 7 7 7 6 4 3
5 4 6 5 3 4 2 4 4 4 1 2 8 1 1 4 2 3 6 5 6 6 6 10 1 7 8 11 10 8 8 9 11 11 11 11 10 10 10 10 10 8 8 7 6 7 7 6 6 6 6 6 6 5 4 6 6 6 6 5 5 4 6 6 7 6 6 6 5 4 5 5 3 3 3 3 4 4 4 4 5 6 6 5 5 6 6 6 6 7 7 7 6 7 8 6 5
4 6 10 6 4 4 2 1 3 1 1 2 1 7 2 3 4 5 7 9 8 9 9 10 9 6 8 7 8 10 10 11 11 11 11 12 11 11 10 10 9 9 6 7 7 8 8 7 6 6 6 5 6 5 5 6 7 6 6 5 4 4 4 3 2 3 4 5 4 6 6 5 4 3 3 3 3 3 4 4 5 6 6 4 3 4 5 6 6 7 7 5 7 6 5 7 6
4 3 12 8 5 5 2 1 1 2 3 3 1 4 6 4 7 6 10 12 13 11 10 14 9 10 7 5 6 8 8 11 11 12 10 10 10 11 11 9 9 8 6 8 7 7 8 7 7 6 5 6 5 5 8 7 7 5 6 6 5 4 3 2 4 4 4 4 6 6 5 5 5 3 3 3 3 3 4 4 5 5 5 6 5 5 6 6 6 7 7 7 6 4 6 8 7
3 4 10 8 8 5 3 3 2 1 0 6 4 1 3 5 5 8 12 10 11 15 13 13 12 10 10 8 7 8 8 9 10 11 11 10 10 9 10 10 8 8 7 8 7 6 6 6 7 7 7 7 5 7 7 6 5 5 5 4 5 4 3 2 1 2 4 4 6 6 6 6 6 6 5 5 4 3 3 3 3 4 5 5 5 5 5 6 7 8 7 7 7 8 7 5 5
2 7 7 5 5 5 7 5 4 0 1 7 7 6 4 2 3 9 10 12 16 14 12 11 16 17 13 11 10 9 9 10 10 11 11 11 9 9 8 9 9 7 6 7 7 7 6 6 7 8 7 6 5 6 6 6 5 5 5 4 5 4 3 2 1 4 5 5 6 7 6 7 7 7 7 5 6 5 5 4 3 4 4 4 5 5 6 6 6 7 7 7 9 8 4 5 8
4 7 5 1 3 4 1 2 3 3 3 12 11 10 7 4 7 11 11 11 15 14 10 8 13 11 10 9 10 10 8 10 10 10 10 10 8 7 8 11 9 7 7 9 8 7 6 6 7 8 6 5 5 5 5 6 5 5 5 5 5 4 2 2 5 7 6 6 7 6 6 6 6 6 6 6 5 6 6 4 4 5 4 5 5 5 5 6 7 7 7 7 5 6 5 6 7
6 4 4 3 1 1 1 0 2 4 7 11 7 11 6 8 3 7 4 5 14 17 16 13 15 13 11 9 10 9 10 10 11 10 10 11 10 7 8 11 9 8 7 7 7 5 4 5 6 8 6 5 5 5 5 5 4 4 3 3 4 3 3 5 6 6 7 7 6 6 6 6 7 6 7 7 8 8 7 6 5 5 5 5 5 5 5 5 6 6 6 6 5 6 6 6 6
8 6 8 8 3 3 3 2 4 10 11 3 7 8 2 8 2 10 10 9 14 10 14 16 16 14 12 11 10 9 8 12 12 9 8 7 8 9 9 8 7 8 8 6 6 4 4 5 5 7 5 4 4 3 4 4 4 4 3 4 4 5 6 6 6 7 6 6 5 6 6 6 6 7 8 8 9 10 8 7 7 6 6 5 5 5 5 6 7 6 7 7 7 7 6 6 6
12 10 9 10 6 6 7 7 1 3 5 1 1 10 6 1 2 5 14 11 14 12 7 8 12 13 14 11 10 10 8 10 12 9 8 7 7 8 8 7 7 8 7 6 6 6 6 6 6 7 7 6 5 6 5 6 6 6 6 6 6 6 7 6 6 6 5 5 4 5 5 6 6 7 8 8 8 8 8 8 8 7 6 6 5 5 6 6 6 7 7 7 7 6 6 7 9
8 3 6 6 3 4 6 4 10 8 5 4 2 6 3 4 3 4 7 10 10 14 11 8 8 9 10 10 10 12 9 8 10 9 8 8 7 7 7 5 6 8 8 7 6 6 6 6 5 7 6 5 5 4 5 6 6 7 7 7 7 6 6 6 6 5 6 6 6 5 5 5 6 6 7 7 8 9 9 8 9 8 8 8 7 7 6 6 6 7 7 7 6 6 7 7 7
4 5 6 4 12 7 5 4 3 2 2 3 1 2 1 2 2 3 8 12 12 12 11 12 10 9 11 10 10 10 9 9 8 9 8 8 7 7 7 5 5 8 7 6 5 5 6 5 5 5 4 4 4 5 5 6 7 7 8 9 9 8 7 6 6 7 6 6 6 6 6 6 6 7 6 7 9 8 8 9 9 10 11 10 9 8 8 7 7 7 7 6 7 5 7 8 7
5 8 10 14 4 3 3 1 1 4 5 0 0 1 1 1 3 6 11 14 14 12 12 13 12 11 11 10 9 10 9 9 8 8 8 8 6 6 6 6 6 8 6 5 4 5 6 5 4 4 4 4 6 6 7 7 8 9 9 9 9 9 8 8 7 7 7 6 6 6 7 6 7 7 7 7 8 8 8 9 9 11 11 11 11 11 10 9 9 8 7 7 7 6 6 7 7
6 7 10 3 5 1 2 4 0 1 6 2 1 4 5 6 3 4 8 10 3 10 12 14 11 11 11 9 9 9 9 9 8 8 7 6 6 7 5 5 7 8 6 5 5 4 5 4 3 3 4 7 7 8 8 8 8 9 9 9 9 8 7 7 7 7 6 6 6 6 6 8 9 8 7 7 7 8 8 10 8 10 9 10 10 11 11 11 11 8 8 8 7 8 7 6 7
9 12 6 8 7 8 4 1 2 2 3 2 3 5 3 6 6 9 11 10 8 12 11 15 13 11 11 9 10 9 10 9 9 8 8 6 6 6 7 7 6 7 5 5 5 5 6 4 4 5 8 7 7 7 7 8 8 6 6 8 8 8 7 7 6 6 6 6 7 7 7 7 8 9 8 9 9 9 9 9 8 9 9 9 9 10 10 10 10 9 10 9 9 9 8 9 8
8 7 9 7 5 7 6 5 3 6 3 4 3 6 4 5 3 14 17 17 14 15 16 13 12 11 11 10 10 10 10 9 8 8 7 7 7 7 8 8 8 6 6 6 6 6 7 5 7 9 9 8 9 9 8 8 7 7 8 8 8 7 7 6 6 6 7 8 8 9 8 7 7 7 7 8 8 8 9 9 8 8 10 10 10 9 9 9 10 8 8 9 10 11 11 10 9
6 6 5 5 5 1 4 1 3 6 7 4 6 5 4 4 7 11 17 20 21 20 17 13 12 11 12 12 11 10 10 8 8 8 8 8 8 8 7 6 7 6 6 7 7 8 7 7 10 10 10 9 9 7 7 6 6 7 7 8 7 6 7 7 8 8 8 8 8 9 8 7 6 7 8 8 8 9 9 9 9 8 9 9 10 10 9 8 8 9 9 8 9 10 10 10 9
7 7 8 10 10 5 13 8 2 3 7 5 7 6 1 3 3 11 11 11 12 12 15 13 13 12 12 12 12 12 10 9 8 6 7 9 9 9 7 7 7 8 7 8 7 9 10 10 9 9 9 8 7 6 5 5 4 5 6 6 7 7 7 7 7 8 9 8 8 9 9 9 9 9 8 8 8 8 9 9 9 9 9 10 10 10 10 9 10 11 11 9 9 11 11 11 10
Wind_Direction
324 316 299 298 61 76 55 358 264 308 77 227 244 180 255 235 266 324 267 334 337 250 245 34 25 61 185 193 144 114 5 119 203 136 211 217 124 134 119 121 123 131 134 137 136 130 129 127 124 124 126 125 123 122 119 117 115 110 105 104 105 101 100 100 101 101 101 99 98 97 100 102 103 104 104 104 105 105 105 103 103 102 99 97 97 94 91 91 90 89 90 85 81 82 80 77 73
293 304 313 327 60 37 304 105 100 336 33 336 241 116 246 256 335 250 274 290 215 297 88 93 80 86 88 106 141 202 34 19 356 98 89 91 93 94 125 130 134 138 137 136 133 130 133 131 127 128 129 127 126 125 122 119 115 111 106 103 104 104 103 103 104 104 103 100 100 100 103 104 106 104 103 103 102 102 101 102 99 99 99 99 97 94 91 88 86 83 79 83 82 79 79 78 76
315 334 3 24 24 67 43 38 259 168 169 228 259 217 299 290 225 254 341 300 176 134 107 102 109 86 35 130 25 29 256 47 96 87 98 119 108 118 120 122 126 137 138 136 132 134 135 135 132 132 132 130 127 126 124 119 115 112 108 105 106 108 107 108 104 106 105 104 105 107 107 109 108 105 103 104 101 101 102 102 100 98 97 98 96 94 94 90 83 79 75 78 83 81 81 80 80
347 14 98 58 259 25 76 30 99 142 190 213 276 257 227 213 239 223 348 96 211 142 148 50 52 294 105 58 105 58 72 95 29 120 122 149 129 130 125 125 130 134 134 133 133 133 134 139 137 136 134 132 130 127 123 120 117 115 112 110 111 112 112 109 109 111 110 109 111 112 112 111 111 111 109 106 105 101 94 92 92 88 87 88 93 96 95 90 84 77 72 73 76 75 75 73 74
38 331 75 84 112 320 114 199 160 124 226 175 205 259 239 234 245 338 269 261 242 278 316 140 85 1 86 119 166 96 216 86 111 21 109 95 120 128 126 129 131 133 133 130 130 129 138 142 139 136 134 132 130 126 123 121 121 119 117 114 114 115 116 115 116 116 113 113 115 116 116 116 115 113 110 108 107 103 97 94 92 91 89 87 86 85 84 84 82 77 77 74 72 73 74 74 70
51 42 353 94 169 185 57 63 260 209 231 143 209 248 216 228 196 111 298 285 258 280 266 341 140 164 35 12 26 90 142 131 155 51 120 134 133 131 127 131 129 130 126 123 128 129 137 141 137 133 133 131 129 127 124 124 124 124 122 121 119 120 122 121 123 121 120 117 118 118 117 116 116 114 111 108 103 100 99 98 99 99 98 100 102 102 100 96 93 86 79 74 70 72 76 76 70
343 41 355 25 7 58 179 169 225 223 259 167 233 260 242 257 178 356 348 19 318 349 1 130 119 104 82 88 41 38 53 131 116 119 90 131 127 127 129 129 127 126 123 125 122 127 137 137 135 134 132 131 129 127 125 125 128 127 126 126 123 121 123 121 121 124 123 121 120 120 118 118 118 115 112 108 103 99 97 98 100 99 99 101 99 99 95 87 80 77 75 78 78 78 82 80 75
80 116 271 111 218 55 239 218 238 166 272 199 247 277 271 279 307 321 305 99 287 357 110 135 349 97 310 8 108 347 25 34 99 96 108 120 125 126 130 130 122 120 122 121 122 131 138 136 136 135 133 130 129 128 127 127 130 132 131 132 130 126 128 127 119 116 123 127 126 123 120 120 118 116 111 109 105 101 103 102 101 100 101 98 97 93 89 88 90 91 89 87 86 83 81 79 73
345 86 328 85 216 30 354 237 248 232 269 291 282 260 275 272 271 266 256 202 263 150 213 177 148 75 193 55 56 53 59 93 96 107 115 123 127 132 132 133 128 125 123 125 127 134 134 138 135 133 132 131 130 129 129 131 133 135 135 136 136 130 130 130 124 111 103 114 123 124 120 121 121 117 114 108 104 102 101 103 104 103 102 104 104 103 98 97 99 100 95 89 85 80 80 74 66
17 91 255 154 124 226 326 284 178 243 237 225 242 263 267 265 268 194 244 161 200 136 279 345 58 120 119 97 99 358 109 112 110 105 115 125 130 128 124 124 126 129 131 129 133 132 138 138 134 132 132 132 130 130 130 132 135 136 139 139 139 135 133 132 117 106 106 113 116 122 125 119 120 116 114 111 108 107 107 109 112 111 110 113 115 110 105 99 94 91 91 88 79 73 63 62 62
358 5 157 93 56 236 222 271 274 304 276 288 275 252 252 263 248 263 176 224 177 142 106 108 87 121 110 91 58 55 99 119 119 126 135 131 130 130 123 125 128 133 136 134 131 134 139 135 137 132 129 128 127 126 131 135 137 136 134 137 141 140 137 130 119 113 110 106 109 107 115 121 124 124 119 111 110 106 106 106 107 110 114 111 107 105 105 100 95 90 88 86 82 71 63 60 57
30 83 25 114 193 175 241 215 271 277 287 280 274 268 242 229 240 261 171 191 151 148 162 166 156 127 98 122 127 110 110 111 120 128 127 124 120 118 119 121 130 127 127 126 127 126 126 135 130 134 128 125 125 131 135 136 132 129 130 136 144 145 133 126 122 120 118 104 92 98 115 125 129 126 120 112 110 109 106 108 111 117 116 111 111 106 97 97 90 85 83 83 83 72 61 57 57
128 116 82 96 226 153 219 253 265 286 311 275 238 280 276 243 217 224 178 181 159 153 219 237 140 136 121 134 115 119 120 135 131 128 125 120 115 113 112 119 113 111 114 117 119 118 119 116 124 124 131 131 130 130 130 128 125 129 131 135 142 143 134 134 128 125 115 107 104 103 107 116 124 127 123 119 114 111 108 108 110 113 119 122 114 99 92 86 82 79 75 78 80 75 64 59 57
119 179 122 216 80 186 145 235 263 324 287 254 235 275 285 263 251 211 143 169 171 169 210 139 138 118 95 119 138 146 144 144 137 124 114 109 109 111 114 108 109 111 111 115 118 118 115 114 115 116 115 106 113 122 124 128 129 128 125 133 139 142 140 140 134 124 118 119 119 116 114 113 115 122 128 126 123 118 120 115 114 112 113 115 123 113 90 74 69 62 66 61 72 71 68 64 61
187 182 86 139 292 46 248 169 215 173 260 265 271 320 309 264 255 150 160 162 156 99 118 72 160 113 192 160 166 165 153 147 137 120 110 104 107 110 109 108 110 112 115 115 116 117 113 108 95 93 97 95 99 107 115 133 132 129 129 133 134 138 139 141 137 127 125 126 130 133 133 130 130 131 133 132 135 132 129 128 125 119 116 121 117 122 109 78 59 50 43 42 40 62 63 64 67
175 94 91 166 249 181 263 189 223 235 260 296 285 358 334 309 353 136 177 136 116 124 112 165 245 207 161 189 139 148 142 141 131 117 114 113 109 106 109 110 112 112 113 114 109 103 107 103 103 105 111 118 122 128 134 139 144 142 137 133 139 146 146 139 135 135 135 138 141 143 146 144 139 140 143 140 144 144 136 136 134 131 127 127 133 130 122 105 66 44 34 20 17 34 53 64 71
84 80 318 113 259 163 254 181 150 215 257 285 306 5 11 312 325 35 75 111 129 143 65 4 268 47 137 110 125 135 130 132 126 121 116 114 112 109 108 113 118 109 106 103 112 115 114 115 114 113 119 127 129 135 141 143 155 148 145 146 151 153 148 147 142 144 145 152 148 148 139 104 110 122 129 141 151 139 149 145 143 142 142 140 136 136 144 144 122 48 34 6 358 11 18 61 72
75 170 135 252 205 194 218 206 181 223 298 309 330 338 356 311 1 96 80 54 81 90 78 61 53 66 96 106 119 123 130 133 136 129 126 121 125 123 124 125 129 127 123 122 123 123 117 116 118 122 127 136 145 144 146 148 146 143 131 146 157 156 157 153 145 148 148 140 155 150 117 141 85 53 40 165 64 164 162 162 158 150 150 147 145 144 151 164 135 37 10 354 344 349 10 69 68
157 186 147 234 188 237 192 226 263 337 298 309 312 322 31 241 150 177 102 124 112 84 78 90 96 94 95 110 122 129 138 141 141 133 133 136 136 136 132 134 134 131 132 136 135 135 126 123 127 134 143 154 147 136 124 112 104 100 108 135 159 159 160 133 127 135 101 139 114 104 106 60 74 42 1 256 151 268 247 182 173 166 158 162 156 157 153 173 196 186 325 345 340 351 31 71 78
223 151 235 239 204 245 270 272 274 261 279 309 326 316 358 245 246 104 127 127 121 130 129 119 125 125 122 124 133 134 141 143 140 134 133 136 137 140 144 144 140 144 148 152 143 127 129 135 138 146 154 156 133 122 107 101 105 114 131 144 114 99 98 112 119 116 122 118 113 104 108 98 89 83 332 337 311 137 316 249 193 183 182 169 176 150 178 185 197 254 309 355 22 11 2 52 87
255 168 218 231 214 244 263 245 249 260 215 286 295 317 348 295 222 138 136 111 135 226 163 148 146 138 134 136 137 139 144 143 139 135 132 133 132 135 141 142 146 147 152 135 128 139 138 136 139 147 153 150 139 140 135 122 123 131 144 149 125 110 119 105 93 87 103 111 129 135 110 86 52 40 53 1 7 118 194 282 335 359 350 298 116 24 315 313 24 47 359 23 52 22 359 10 92
120 226 194 191 279 251 255 257 264 265 21 333 322 356 310 313 111 156 156 144 198 193 201 154 141 141 144 146 148 144 149 143 141 136 137 138 137 135 130 114 109 127 135 137 148 139 140 141 147 158 158 161 155 140 135 147 140 153 157 164 143 153 147 113 97 99 106 121 129 140 120 77 40 19 23 20 27 118 281 288 218 172 321 285 324 259 299 301 305 334 333 297 57 75 357 318 92
244 273 211 209 229 242 274 263 262 55 343 303 312 287 339 256 173 218 7 7 110 95 105 146 141 144 139 136 140 145 150 146 144 142 139 135 134 134 129 129 142 149 149 143 140 144 142 144 157 163 163 161 154 136 134 131 152 164 153 149 149 182 119 140 123 105 100 125 150 152 143 166 187 9 339 328 332 92 215 261 265 273 261 261 277 243 282 292 297 299 294 278 333 7 312 312 323
225 250 35 281 204 235 263 271 279 287 275 270 242 346 61 275 151 292 72 51 97 99 114 116 120 123 130 134 145 146 148 144 145 138 125 129 131 130 133 135 144 134 133 144 147 148 152 158 164 164 163 161 157 146 137 135 147 151 167 170 163 192 162 175 145 131 131 118 122 9 216 209 202 173 222 275 276 8 229 214 230 246 255 263 269 241 252 280 290 298 296 299 312 305 282 288 298
229 257 240 259 261 247 257 258 273 273 271 258 72 249 298 308 197 63 34 96 102 109 116 120 125 125 120 127 135 139 133 124 117 110 97 94 106 113 116 132 143 145 144 151 152 149 155 159 163 164 166 165 156 143 139 143 153 152 152 148 177 199 165 164 140 133 123 122 120 154 253 273 293 178 193 225 241 254 273 268 214 243 249 259 273 261 239 252 258 258 273 282 286 288 283 278 259
229 233 273 275 272 268 258 290 275 264 273 293 71 102 118 112 79 49 62 102 112 117 117 124 126 127 128 131 130 130 122 117 112 102 99 87 80 139 156 158 157 157 155 150 148 149 148 157 163 165 166 167 156 141 146 154 162 157 162 167 183 191 147 125 147 135 87 101 122 169 226 228 250 243 228 225 201 240 254 263 265 245 236 251 237 257 243 244 247 246 253 270 280 279 277 268 285
189 207 230 239 253 284 283 233 265 265 253 177 125 164 149 182 75 352 64 131 123 120 125 132 135 132 129 126 122 119 118 115 98 73 82 138 177 184 169 156 150 136 134 134 139 140 142 145 152 158 166 172 152 150 151 161 159 154 156 159 193 173 163 149 165 54 41 131 172 184 209 227 237 253 244 236 229 222 238 246 250 265 266 245 216 241 241 238 261 252 229 227 239 249 253 272 267
263 248 280 269 268 259 258 277 269 319 291 174 141 185 155 332 90 161 150 146 137 130 134 137 135 133 126 126 124 117 108 107 119 150 164 180 178 141 113 132 135 129 137 137 124 113 122 131 141 157 174 172 158 148 153 156 152 144 153 142 179 323 155 205 202 174 253 245 231 219 220 226 239 254 256 248 227 216 213 219 233 237 253 258 235 228 230 230 232 243 247 236 242 243 265 260 206
270 262 284 280 305 295 227 220 243 215 267 245 119 74 17 337 155 151 142 141 140 134 138 139 132 128 129 127 119 118 121 145 166 162 170 113 94 144 145 155 152 142 137 144 143 139 141 148 150 162 174 181 155 161 169 155 137 141 141 140 144 184 221 214 237 229 239 243 238 240 240 234 235 242 250 251 251 240 231 226 231 233 243 252 245 237 235 229 243 267 283 309 258 236 242 148 91
355 78 171 303 332 307 263 202 274 189 251 249 119 216 263 286 149 141 145 142 136 133 139 137 134 133 133 125 118 117 142 154 159 164 142 137 149 129 124 127 148 135 132 140 141 144 149 142 147 155 172 169 167 150 156 153 139 130 123 118 180 170 194 192 220 215 234 236 232 242 242 241 236 227 227 241 241 250 256 248 239 237 235 253 262 247 242 255 245 251 260 327 335 39 300 255 207
185 253 100 210 144 262 279 184 193 192 273 305 123 189 277 258 152 152 154 153 144 144 146 140 133 128 124 118 120 134 131 152 156 135 135 130 115 108 126 136 135 120 116 132 152 148 142 147 153 153 168 169 163 166 183 168 127 130 133 139 167 177 208 195 210 206 218 236 212 242 242 240 237 230 220 222 239 236 255 264 260 248 217 226 248 255 245 236 223 230 222 233 246 250 241 237 218
262 49 257 323 164 278 289 291 162 189 285 60 140 211 204 179 160 160 156 151 142 139 146 143 133 140 139 125 126 120 130 130 122 127 125 123 114 135 130 134 131 135 141 148 136 140 151 148 150 143 163 163 140 178 195 96 111 122 137 164 155 180 238 248 234 223 215 217 227 240 242 240 232 223 220 210 229 228 229 245 256 268 251 223 233 253 248 259 262 264 223 221 250 253 244 266 236
345 157 270 217 133 242 343 240 206 188 162 15 161 193 93 196 184 159 151 145 145 140 144 144 139 145 132 129 130 131 131 114 102 120 103 94 92 65 113 127 138 140 142 145 139 157 139 160 148 155 171 151 126 115 70 27 75 92 98 43 129 167 218 242 227 208 217 233 235 240 240 240 241 221 215 215 223 234 234 240 254 263 273 249 255 271 258 250 252 256 247 210 230 241 215 234 239
267 20 195 205 168 235 231 299 275 224 139 197 262 122 213 173 172 155 143 155 147 142 145 147 139 128 125 129 135 142 144 138 144 127 108 100 103 88 93 117 121 132 139 129 133 153 157 152 130 160 115 89 96 133 69 42 39 45 36 34 13 20 294 287 294 300 274 237 240 253 253 244 243 230 221 216 223 229 233 241 254 250 241 243 253 261 258 263 253 245 255 221 214 221 266 257 244
167 159 146 258 231 196 209 161 245 133 302 158 189 127 355 155 164 153 152 180 153 155 154 149 142 136 137 142 145 145 138 135 131 118 112 114 117 96 96 106 117 125 123 121 123 121 116 120 136 170 141 121 102 82 72 62 64 49 39 39 15 336 309 293 293 299 265 257 236 235 231 234 239 235 228 219 223 227 230 235 243 245 213 219 226 255 266 254 238 233 244 259 238 213 204 214 245
169 167 173 159 177 223 210 246 268 157 136 191 154 190 168 167 164 161 161 167 166 165 149 140 135 139 141 143 145 140 131 119 114 103 105 108 110 101 95 99 107 111 115 118 122 125 124 124 124 102 133 122 106 82 74 62 55 32 358 342 342 320 307 291 262 242 264 261 257 243 235 235 241 243 236 225 227 237 239 246 254 254 243 221 235 234 237 237 241 236 237 243 257 262 242 220 174
155 168 158 196 184 269 275 273 253 148 108 197 187 124 152 172 169 168 158 147 168 154 156 147 146 146 143 145 143 133 120 121 113 102 106 109 104 93 92 95 101 103 108 113 115 120 119 116 117 111 137 139 131 135 91 107 97 76 44 320 281 282 288 298 286 264 241 238 245 244 245 245 247 255 254 232 233 241 238 236 239 252 241 236 234 246 251 252 229 230 235 215 233 244 256 230 179
176 163 173 230 177 231 244 231 266 185 147 303 122 120 179 176 176 162 151 156 188 172 161 150 148 141 141 146 141 131 127 117 113 110 114 110 105 100 96 103 107 99 100 105 109 114 117 118 118 123 106 113 124 148 166 134 203 179 171 215 234 284 302 299 295 300 278 273 251 244 242 235 234 239 247 237 246 242 252 251 250 255 250 247 242 246 249 244 252 254 249 252 206 223 238 193 187
226 205 199 225 258 249 283 281 342 298 118 273 133 125 233 207 178 166 161 176 179 173 161 156 148 138 146 145 137 133 132 127 124 121 118 113 108 101 95 86 83 89 94 98 106 102 105 110 118 141 159 152 170 162 153 193 219 243 154 248 180 270 240 229 245 278 305 306 295 273 263 259 245 249 238 229 235 236 239 250 254 255 256 254 255 258 254 249 232 229 212 221 230 228 240 196 188
195 194 185 211 236 157 277 289 23 169 136 194 121 100 7 57 56 62 4 43 124 114 95 350 91 145 147 149 145 142 137 135 134 130 124 115 108 107 99 93 96 95 83 82 82 93 99 105 85 51 27 18 16 323 351 360 355 310 284 272 277 223 316 354 331 320 342 340 322 322 304 277 271 262 251 231 236 247 239 250 254 250 252 241 239 253 255 254 242 234 225 233 219 252 227 234 196
208 184 169 170 204 226 157 240 349 18 44 114 94 57 12 344 140 106 65 50 25 31 107 19 336 91 126 119 122 136 139 137 134 130 121 116 109 104 102 98 88 78 75 70 69 73 82 77 80 81 71 62 44 38 44 145 96 66 13 45 34 19 12 14 21 10 2 342 329 341 311 292 260 257 264 269 265 257 251 248 252 256 253 243 238 247 256 255 251 239 237 238 219 221 233 236 221
234 213 173 189 154 196 300 340 21 24 4 284 132 37 319 289 307 174 147 123 101 51 68 98 352 311 135 133 135 137 130 128 128 123 118 115 112 104 97 95 89 81 74 72 76 79 81 76 70 63 62 44 41 35 44 64 59 62 61 52 42 31 34 24 20 4 352 359 342 316 343 347 329 313 301 299 291 283 271 263 263 264 260 250 236 241 252 262 260 253 239 229 232 222 231 226 241
173 249 161 192 167 161 140 324 62 74 147 277 125 164 243 323 216 188 158 144 126 131 158 136 160 206 163 145 147 143 135 133 123 118 118 116 112 102 94 90 90 87 82 85 77 77 77 74 65 64 58 53 41 39 40 63 63 59 67 76 78 70 65 29 338 343 2 351 349 4 354 1 357 315 290 280 269 257 253 254 256 257 264 276 259 251 252 255 260 257 260 252 239 234 213 235 217
220 197 157 173 154 161 186 227 177 214 244 305 30 154 157 215 224 203 168 144 146 160 169 147 173 162 148 162 152 120 134 130 125 124 114 112 107 106 101 93 88 88 91 82 76 73 74 72 74 63 62 61 51 50 50 46 67 59 63 61 62 58 55 33 6 4 359 358 6 4 350 350 346 344 318 293 268 261 261 264 263 264 268 259 249 242 253 258 257 257 255 252 252 225 198 227 237
208 170 136 161 173 158 182 184 239 177 359 294 291 105 87 218 188 173 168 156 161 173 167 164 162 157 175 165 138 128 125 117 117 118 113 107 107 106 107 98 94 87 78 81 78 71 69 70 72 66 60 55 48 54 59 50 59 68 65 58 56 32 25 14 349 15 21 10 18 358 360 348 347 344 348 340 324 311 297 287 285 280 269 264 257 263 263 268 271 273 259 251 250 249 233 217 211
246 125 127 152 165 176 175 194 202 27 159 255 225 192 160 259 191 181 193 173 166 176 164 179 158 167 158 147 136 130 120 110 98 100 105 105 107 108 108 104 89 86 85 82 77 80 79 79 71 68 55 53 52 60 69 64 60 62 66 59 63 41 16 346 353 35 26 19 23 7 358 356 349 344 343 340 338 334 326 317 304 294 293 285 277 263 270 270 272 274 269 255 247 236 200 204 220
179 104 91 72 144 161 161 128 139 64 251 237 212 202 158 219 207 193 186 191 164 155 165 159 151 143 138 125 130 130 120 113 108 105 103 102 100 106 109 97 97 84 82 84 82 80 80 74 76 69 54 53 52 55 62 66 61 56 60 58 55 45 17 35 40 29 15 22 19 6 1 347 345 342 337 337 341 337 332 325 320 311 307 302 295 285 274 281 282 281 284 291 278 255 244 212 205
139 156 130 122 323 48 63 11 68 190 251 242 193 197 180 211 212 210 185 129 173 165 158 163 148 144 134 127 125 124 120 114 107 104 107 111 107 103 98 97 95 96 87 87 89 85 80 85 83 74 49 46 44 41 48 52 58 57 66 68 67 59 51 49 48 39 23 22 10 2 355 349 353 346 346 345 348 345 340 329 320 319 318 314 301 286 278 275 281 283 278 267 259 255 251 236 216
181 116 133 155 218 130 240 96 218 210 210 267 183 157 64 237 250 188 182 170 165 176 166 157 143 139 131 128 125 124 124 121 112 111 112 112 118 113 102 106 107 100 99 94 91 93 83 73 77 82 63 49 51 48 51 44 47 49 51 55 49 43 44 42 40 38 23 19 4 3 2 358 352 353 350 351 350 343 342 339 336 330 322 309 292 287 283 285 286 279 278 272 259 253 247 245 230
181 175 163 165 163 176 201 214 309 327 282 317 158 166 194 326 300 207 176 173 161 137 106 128 136 139 134 131 129 122 120 119 114 118 114 110 111 106 106 108 112 105 92 86 81 65 58 54 50 64 52 29 30 33 34 38 37 37 40 42 42 37 39 38 38 35 24 14 3 358 6 358 352 355 346 352 339 343 351 345 340 332 320 310 302 295 292 288 282 278 275 272 266 259 244 233 236
192 130 123 172 158 170 198 183 197 206 211 314 333 125 240 134 239 310 157 132 109 127 157 131 115 115 117 118 117 115 113 108 113 120 123 122 114 109 106 106 100 92 91 82 68 66 61 60 58 56 46 24 29 27 27 33 28 28 29 33 32 32 35 32 32 27 25 11 3 360 4 359 0 353 350 337 344 352 350 352 352 349 342 333 325 318 314 305 294 287 282 276 271 263 257 253 253
181 148 105 109 220 138 182 199 133 158 125 56 348 200 49 172 325 65 119 115 115 122 122 124 124 124 122 120 124 120 119 115 116 118 114 111 117 114 105 96 94 98 95 91 87 88 83 69 65 59 50 24 22 23 20 26 27 34 33 35 32 32 27 26 25 22 15 12 9 6 3 1 1 356 345 346 353 348 350 355 356 358 356 350 340 333 327 320 310 301 293 285 280 271 268 265 264
207 136 197 214 119 88 84 68 104 90 79 237 301 340 226 312 54 114 127 126 132 122 127 127 131 131 128 125 125 121 120 119 120 118 117 117 115 99 100 104 97 96 97 101 98 98 100 87 69 45 19 19 28 34 43 44 45 44 36 36 32 30 29 26 19 13 7 4 12 10 7 4 5 4 352 354 352 349 350 1 5 15 5 358 360 359 351 343 333 317 304 295 290 283 272 270 267
128 190 212 61 101 94 140 215 354 83 175 208 233 202 171 169 187 153 102 115 112 125 130 129 132 132 128 126 127 127 126 123 119 108 104 110 107 105 93 92 104 108 112 105 95 74 69 66 65 56 27 40 44 51 48 46 46 44 38 34 30 30 27 25 23 18 8 8 9 9 6 11 9 2 0 355 355 354 1 1 18 13 5 5 7 6 359 354 347 337 325 311 299 295 289 284 278
175 201 132 148 171 228 245 120 193 157 173 195 278 210 221 210 159 149 137 120 129 122 124 130 136 135 129 130 124 122 117 111 113 121 123 118 112 97 104 109 110 105 103 96 79 72 67 60 69 72 70 65 60 55 57 50 48 49 44 39 35 28 26 27 23 18 14 14 15 12 10 9 8 9 5 2 0 2 4 354 17 15 5 4 2 6 359 356 351 347 344 334 322 305 288 278 272
199 99 162 156 151 211 202 204 174 110 151 113 271 189 219 204 213 168 151 155 158 144 144 143 141 139 134 130 127 126 123 127 132 132 132 125 105 106 110 112 107 103 97 84 75 69 67 74 88 84 73 67 57 53 54 55 47 50 45 41 37 34 32 28 24 18 20 20 21 17 13 8 10 5 6 6 6 5 1 356 5 17 7 5 1 359 354 351 353 347 342 339 333 328 317 301 283
192 157 185 188 201 189 141 78 129 155 159 186 138 213 238 246 165 183 171 166 164 157 149 144 141 138 133 130 130 129 131 135 137 137 128 109 107 105 100 97 88 75 68 69 72 77 79 80 77 77 81 70 62 51 54 53 54 52 50 44 37 32 32 30 27 26 27 26 21 20 13 8 4 13 6 7 8 5 5 360 359 12 15 2 359 356 356 351 346 341 340 330 326 330 323 319 312
170 172 190 193 172 146 187 230 55 100 120 172 164 203 293 258 192 167 165 156 144 141 137 135 136 137 135 133 135 137 134 136 133 122 116 117 114 105 100 86 78 79 73 71 73 78 71 71 76 79 74 68 66 54 53 55 57 60 54 44 43 39 36 33 34 28 34 28 24 20 15 14 16 10 8 7 5 9 7 2 5 4 12 4 360 359 358 355 349 342 334 332 327 328 325 318 318